sat.trackr.live / text

‹ back to catalog

STARLINK-11090 [DTC]

NORAD 59422 · 2024-065B

PAYLOAD ACTIVE UNKNOWN

§ Identity

Operator
Country
US
Launch date
2024-04-07
Launch site
AFWTR
Launch vehicle
Mass (kg)
RCS (m²)

Purposes: comms

External: N2YO · Heavens-Above · Gunter

§ Orbital elements

Epoch: 2026-05-25T02:14:34.656288Z

Period
91.74 min
Inclination
53.1589°
Eccentricity
0.0000680
Mean motion
15.69703149 rev/d
Perigee alt
359.3 km
Apogee alt
360.2 km
Semi-major
6,737.9 km
B*
5.5684e-5
RAAN
77.2068°
Arg perigee
59.7401°
Mean anomaly
300.3685°
Rev number
12,353

§ Raw data

STARLINK-11090 [DTC]1 59422U 24065B   26145.09345667  .00006161  00000+0  55684-4 0  99922 59422  53.1589  77.2068 0000680  59.7401 300.3685 15.69703149123539

JSON: /api/v1/satellites/59422 · /tle

For live sub-satellite position, see the globe view (requires WebGL).

§ Visibility from observer

Set your observer location to see the next 7 days of passes ≥ 10°. The values pass through the URL so the page stays shareable.

No JS? Fill the form by hand. The geolocation button needs JavaScript.